Gibraltar, Gibraltar

1:01 PM CET on December 13, 2017 (GMT +0100)
Gibraltar Air Base

Weather History for LXGB - October, 2012

Change the Weather History Date:

Friday, October 5, 2012

  Actual Average Record
Temperature  
Mean Temperature 69 °F -  
Max Temperature 73 °F 69 °F 84 °F (2013)
Min Temperature 65 °F 60 °F 59 °F (1996)
Cooling Degree Days 4    
Growing Degree Days 19 (Base 50)    
Moisture  
Dew Point 64 °F    
Average Humidity 81    
Maximum Humidity 94    
Minimum Humidity 57    
Precipitation  
Precipitation 0.00 in - - ()
Sea Level Pressure  
Sea Level Pressure 30.04 in    
Wind  
Wind Speed 4 mph ()    
Max Wind Speed 8 mph    
Max Gust Speed -    
Visibility 6.2 miles    
Events      
Averages and records for this station are not official NWS values.
T = Trace of Precipitation, MM = Missing Value Source: Averaged Metar Reports

Daily Weather History Graph

Daily Weather History Graph

Search for Another Location

Airport or City:

Trip Planner

Search our weather history database for the weather conditions in past years. The results will help you decide how hot, cold, wet, or windy it might be!

Date:

Astronomy

Oct. 05, 2012 Rise Set
Actual Time 8:20 AM CEST 7:58 PM CEST
Civil Twilight 7:54 AM CEST 8:24 PM CEST
Nautical Twilight 7:24 AM CEST 8:54 PM CEST
Astronomical Twilight 6:54 AM CEST 9:23 PM CEST
Moon 11:19 PM CEST (10/5) 1:07 PM CEST (10/5)
Length of Visible Light 12h 30m
Length of Day
11h 38m
Waning Gibbous, 76% of the Moon is Illuminated
Oct 5
Waning Gibbous
Oct 8
Last Quarter
Oct 15
New
Oct 22
First Quarter
Oct 29
Full

Hourly Weather History & Observations

Time (CEST) Temp. Dew Point Humidity Pressure Visibility Wind Dir Wind Speed Gust Speed Precip Events Conditions
12:50 AM 66.2 °F 64.4 °F 94% 29.98 in 6.2 mi East 5.8 mph - N/A   Unknown
1:50 AM 66 °F 65 °F 94% 30.01 in 7 mi East 5.8 mph - -  
1:50 AM 66.2 °F 64.4 °F 94% 30.01 in 6.2 mi East 5.8 mph - N/A   Unknown
2:50 AM 68.0 °F 64.4 °F 88% 30.01 in 6.2 mi East 8.1 mph - N/A   Unknown
3:50 AM 68.0 °F 64.4 °F 88% 30.01 in 6.2 mi ESE 6.9 mph - N/A   Unknown
4:50 AM 68.0 °F 64.4 °F 88% 30.01 in 6.2 mi Calm Calm - N/A   Unknown
5:50 AM 68.0 °F 64.4 °F 88% 30.01 in 6.2 mi East 6.9 mph - N/A   Unknown
6:50 AM 66.2 °F 64.4 °F 94% 30.01 in 6.2 mi Calm Calm - N/A   Partly Cloudy
7:50 AM 67 °F 63 °F 83% 30.03 in 7 mi Calm Calm - -   Partly Cloudy
7:50 AM 68.0 °F 62.6 °F 83% 30.01 in 6.2 mi Calm Calm - N/A   Scattered Clouds
8:50 AM 68.0 °F 62.6 °F 83% 30.04 in 5.6 mi Calm Calm - N/A   Haze
9:50 AM 66.2 °F 62.6 °F 88% 30.04 in 5.6 mi Calm Calm - N/A   Haze
10:50 AM 69.8 °F 62.6 °F 78% 30.06 in 6.2 mi Calm Calm - N/A   Partly Cloudy
11:50 AM 71.6 °F 60.8 °F 69% 30.06 in 6.2 mi East 4.6 mph - N/A   Partly Cloudy
12:50 PM 73.4 °F 59.0 °F 61% 30.09 in 6.2 mi ENE 5.8 mph - N/A   Mostly Cloudy
1:50 PM 72 °F 60 °F 57% 30.08 in 9 mi East 6.9 mph - -   Scattered Clouds
1:50 PM 71.6 °F 60.8 °F 69% 30.06 in 6.2 mi East 6.9 mph - N/A   Mostly Cloudy
2:50 PM 73.4 °F 64.4 °F 73% 30.06 in 6.2 mi East 5.8 mph - N/A   Mostly Cloudy
3:50 PM 73.4 °F 62.6 °F 69% 30.06 in 6.2 mi East 8.1 mph - N/A   Mostly Cloudy
4:50 PM 73.4 °F 64.4 °F 73% 30.04 in 6.2 mi ESE 8.1 mph - N/A   Scattered Clouds
5:50 PM 73.4 °F 64.4 °F 73% 30.04 in 6.2 mi ESE 8.1 mph - N/A   Scattered Clouds
6:50 PM 73.4 °F 64.4 °F 73% 30.04 in 5.6 mi SE 5.8 mph - N/A   Haze
7:50 PM 71 °F 65 °F 76% 30.06 in 6 mi ESE 4.6 mph - -   Haze
7:50 PM 71.6 °F 64.4 °F 78% 30.04 in 6.2 mi ESE 4.6 mph - N/A   Haze
8:50 PM 69.8 °F 66.2 °F 88% 30.06 in 6.2 mi ESE 5.8 mph - N/A   Partly Cloudy
9:50 PM 68.0 °F 66.2 °F 94% 30.09 in 6.2 mi Calm Calm - N/A   Partly Cloudy
10:50 PM 69.8 °F 66.2 °F 88% 30.09 in 5.6 mi Calm Calm - N/A   Haze
11:50 PM 68.0 °F 66.2 °F 94% 30.09 in 4.3 mi Calm Calm - N/A   Haze